Regional Weather Roundup
Issued by NWS Green Bay, WI

Home | Current Version | Previous Version | Text Only | Print | Product List | Glossary On
Versions: 1 2 3 4 5 6 7 8 9 10 11 12 13 14 15 16 17 18 19 20 21 22 23 24 25 26 27 28 29 30 31 32 33 34 35 36 37 38 39 40 41 42 43 44 45 46 47 48 49 50
000
ASUS43 KGRB 300210
RWRGRB

NORTH-CENTRAL AND NORTHEAST WISCONSIN REGIONAL WEATHER ROUNDUP
NATIONAL WEATHER SERVICE GREEN BAY WI
800 PM CST THU JAN 29 2015

WIZ005-009-010>012-018-019-300300-
NORTH CENTRAL WISCONSIN

CITY           SKY/WX    TMP DP  RH WIND       PRES   REMARKS
IRONWOOD       CLOUDY    18   9  68 N16G22    30.31R WCI   3
MANITOWISH WTR LGT SNOW  15   9  76 N13G22    30.27R WCI   2
ARBOR VITAE    CLOUDY    18  10  71 N20G30    30.27R HAZE    WCI   2
EAGLE RIVER    LGT SNOW  17  10  73 N15G25    30.24R WCI   2
LAND O LAKES   LGT SNOW  16  11  80 N14G23    30.25R WCI   2
RHINELANDER    FLURRIES  18  10  71 NW12      30.25R WCI   5
PHILLIPS       CLOUDY    17   9  71 NW13G18   30.30R WCI   3
ANTIGO         CLOUDY    19  12  74 NW20      30.24R WCI   3
TOMAHAWK       LGT SNOW  19  12  74 NW9G22    30.28R WCI   7
MERRILL        LGT SNOW  21  16  81 N15       30.28R WCI   7
$$

WIZ013-073-300300-
NORTHEAST WISCONSIN

CITY           SKY/WX    TMP DP  RH WIND       PRES   REMARKS
IRON MOUNTAIN  CLOUDY    18   9  68 N21G30    30.22R WCI   1
MARINETTE      PTCLDY    21   9  58 N10       30.24R
OCONTO         CLOUDY    23  11  61 MISG      30.26R
$$

WIZ017-030-035>037-045-300300-
CENTRAL WISCONSIN

CITY           SKY/WX    TMP DP  RH WIND       PRES   REMARKS
MEDFORD        CLOUDY    19  11  72 NW17G25   30.29R WCI   4
WAUSAU         CLOUDY    22  13  68 N12G20    30.26R
MOSINEE        FLURRIES  23  16  74 NW16      30.27R WCI  10
MARSHFIELD     CLOUDY    23  12  62 NW22      30.29R WCI   8
WISC RAPIDS    CLOUDY    26  12  55 NW18G24   30.29R
STEVENS POINT  FLURRIES  23  12  63 N9G20     30.28R
WAUPACA        CLOUDY    28  13  52 NW18G25   30.26R
SHAWANO        CLOUDY    26  12  54 N14       30.27R
CLINTONVILLE   CLOUDY    27  10  50 N13G22    30.27R
$$

WIZ038-039-048-051-300300-
FOX VALLEY

CITY           SKY/WX    TMP DP  RH WIND       PRES   REMARKS
NWS GREEN BAY  CLOUDY    25  13  60 N13G22    30.25R
APPLETON       CLOUDY    27  12  54 NW21G29   30.25R
OSHKOSH        CLOUDY    27  13  55 N23G35    30.23R
FOND DU LAC    CLOUDY    28  16  60 N20G33    30.24R
$$

WIZ022-050-052-300300-
EAST CENTRAL WISCONSIN

CITY           SKY/WX    TMP DP  RH WIND       PRES   REMARKS
STURGEON BAY   MOCLDY    19  10  68 N18G25    30.25R WCI   4
MANITOWOC      CLOUDY    27  16  63 N23G31    30.22R
SHEBOYGAN      CLOUDY    28  16  60 N21G31    30.21R
$$

LMZ563-521-522-541>543-300300-
LAKESHORE

STATION/POSITION TIME  TEMP    WIND        PRES    VSBY  WAVE
                       AIR SEA DIR/SP/G                  HT/PER
                 (UTC) (F)     (DEG/KT/KT) (MB)    (MI)  (FT/S)
SHEBOYGAN LKSHOR 0200   28     360/ 25/ 28 1024.3R
KEWAUNEE LKSHORE 0200   24     350/ 17/ 24 1022.6R
TWO RIVERS CG    0100   29                 1013.1    3/8   4
NORTHPORT PIER   0200   20     320/ 26     1023.7R
SISTER BAY LKSHO 0200   20     360/ 23/ 26   N/A
STURGEON BAY CG  0100   23     330/ 17     1022.6S     6   1
CHAMBERS ISLAND  0200   20     310/ 18/ 24 1023.7S
MENOMINEE LKSHOR 0200   22     320/ 17     1024.6R
$$


USA.gov is the U.S. government's official web portal to all federal, state and local government web resources and services.